,,,PA_Meas_PMT16A,,PR_Meas_QMR101_102,,RH_Meas_QMH101,,SR_Meas_QMS101,,TA_Meas_QMH101,,GenWind,,GenWind,
date,time,status,PA,status,PR,status,RH,status,SR,status,TA,status,DirAvg,status,SpdAvg,
2014-04-07, 00:00:05,VALID,1012.5,VALID,0,INVALID,111.999,VALID,0,VALID,23.7914,VALID,79,VALID,0,
2014-04-07, 00:01:05,VALID,1012.47,VALID,0,INVALID,112.068,VALID,0,VALID,23.772,VALID,79,VALID,0,
2014-04-07, 00:02:05,VALID,1012.48,VALID,0,INVALID,112.068,VALID,0,VALID,23.7914,VALID,79,VALID,0,
2014-04-07, 00:03:05,VALID,1012.49,VALID,0,INVALID,112.068,VALID,0,VALID,23.7507,VALID,86,VALID,0,
2014-04-07, 00:04:05,VALID,1012.47,VALID,0,INVALID,112.045,VALID,0,VALID,23.7701,VALID,82,VALID,0,
2014-04-07, 00:05:05,VALID,1012.42,VALID,0,INVALID,112.06,VALID,0,VALID,23.772,VALID,82,VALID,0,
2014-04-07, 00:06:05,VALID,1012.4,VALID,0,INVALID,112.038,VALID,0,VALID,23.772,VALID,82,VALID,0,
2014-04-07, 00:07:05,VALID,1012.4,VALID,0,INVALID,112.053,VALID,0,VALID,23.7525,VALID,82,VALID,0,
2014-04-07, 00:08:05,VALID,1012.39,VALID,0,INVALID,112.083,VALID,0,VALID,23.7932,VALID,82,VALID,0,
2014-04-07, 00:09:05,VALID,1012.35,VALID,0,INVALID,112.038,VALID,0,VALID,23.772,VALID,82,VALID,0,
2014-04-07, 00:10:05,VALID,1012.38,VALID,0,INVALID,112.03,VALID,0,VALID,23.7525,VALID,82,VALID,0,
2014-04-07, 00:11:05,VALID,1012.37,VALID,0,INVALID,112.06,VALID,0,VALID,23.7525,VALID,83,VALID,0,
2014-04-07, 00:12:05,VALID,1012.38,VALID,0,INVALID,112.015,VALID,0,VALID,23.772,VALID,82,VALID,0,
2014-04-07, 00:13:05,VALID,1012.33,VALID,0,INVALID,112.015,VALID,0,VALID,23.7914,VALID,83,VALID,0,
2014-04-07, 00:14:05,VALID,1012.33,VALID,0,INVALID,112.045,VALID,0,VALID,23.772,VALID,82,VALID,0,
2014-04-07, 00:15:05,VALID,1012.33,VALID,0,INVALID,112.076,VALID,0,VALID,23.772,VALID,82,VALID,0,
2014-04-07, 00:16:05,VALID,1012.32,VALID,0,INVALID,112.083,VALID,0,VALID,23.7525,VALID,83,VALID,0,
2014-04-07, 00:17:05,VALID,1012.32,VALID,0,INVALID,112.106,VALID,0,VALID,23.7932,VALID,82,VALID,0,
2014-04-07, 00:18:05,VALID,1012.31,VALID,0,INVALID,112.053,VALID,0,VALID,23.7525,VALID,82,VALID,0,
2014-04-07, 00:19:05,VALID,1012.28,VALID,0,INVALID,112.007,VALID,0,VALID,23.7312,VALID,85,VALID,0,
2014-04-07, 00:20:05,VALID,1012.3,VALID,0,INVALID,112.091,VALID,0,VALID,23.733,VALID,91,VALID,0,
2014-04-07, 00:21:05,VALID,1012.29,VALID,0,INVALID,112.045,VALID,0,VALID,23.733,VALID,90,VALID,0,
2014-04-07, 00:22:05,VALID,1012.29,VALID,0,INVALID,112.045,VALID,0,VALID,23.7525,VALID,90,VALID,0,
2014-04-07, 00:23:05,VALID,1012.27,VALID,0,INVALID,112.053,VALID,0,VALID,23.7135,VALID,90,VALID,0,
2014-04-07, 00:24:05,VALID,1012.29,VALID,0,INVALID,112.083,VALID,0,VALID,23.7348,VALID,90,VALID,0,
2014-04-07, 00:25:05,VALID,1012.29,VALID,0,INVALID,112.099,VALID,0,VALID,23.7135,VALID,90,VALID,0,
2014-04-07, 00:26:05,VALID,1012.27,VALID,0,INVALID,112.076,VALID,0,VALID,23.7135,VALID,90,VALID,0,
2014-04-07, 00:27:05,VALID,1012.25,VALID,0,INVALID,112.076,VALID,0,VALID,23.7135,VALID,90,VALID,0,
2014-04-07, 00:28:05,VALID,1012.26,VALID,0,INVALID,112.045,VALID,0,VALID,23.694,VALID,88,VALID,0,
2014-04-07, 00:29:05,VALID,1012.23,VALID,0,INVALID,112.053,VALID,0,VALID,23.694,VALID,90,VALID,0,
2014-04-07, 00:30:05,VALID,1012.23,VALID,0,INVALID,112.091,VALID,0,VALID,23.694,VALID,92,VALID,0,
2014-04-07, 00:31:05,VALID,1012.21,VALID,0,INVALID,112.06,VALID,0,VALID,23.694,VALID,91,VALID,0,
2014-04-07, 00:32:05,VALID,1012.18,VALID,0,INVALID,112.03,VALID,0,VALID,23.6745,VALID,90,VALID,0,
2014-04-07, 00:33:05,VALID,1012.16,VALID,0,INVALID,112.106,VALID,0,VALID,23.6727,VALID,92,VALID,0,
2014-04-07, 00:34:05,VALID,1012.13,VALID,0,INVALID,112.03,VALID,0,VALID,23.694,VALID,90,VALID,0,
2014-04-07, 00:35:05,VALID,1012.13,VALID,0,INVALID,112.03,VALID,0,VALID,23.6727,VALID,91,VALID,0,
2014-04-07, 00:36:05,VALID,1012.09,VALID,0,INVALID,112.007,VALID,0,VALID,23.6727,VALID,91,VALID,0,
2014-04-07, 00:37:05,VALID,1012.1,VALID,0,INVALID,112.076,VALID,0,VALID,23.694,VALID,90,VALID,0,
2014-04-07, 00:38:05,VALID,1012.08,VALID,0,INVALID,112.015,VALID,0,VALID,23.694,VALID,91,VALID,0,
2014-04-07, 00:39:05,VALID,1012.04,VALID,0,INVALID,112.03,VALID,0,VALID,23.694,VALID,91,VALID,0,
2014-04-07, 00:40:05,VALID,1012.01,VALID,0,INVALID,112.038,VALID,0,VALID,23.694,VALID,89,VALID,0,
2014-04-07, 00:41:05,VALID,1012.03,VALID,0,INVALID,112.038,VALID,0,VALID,23.6745,VALID,91,VALID,0,
2014-04-07, 00:42:05,VALID,1011.99,VALID,0,INVALID,111.999,VALID,0,VALID,23.6745,VALID,90,VALID,0,
2014-04-07, 00:43:05,VALID,1011.99,VALID,0,INVALID,112.06,VALID,0,VALID,23.694,VALID,91,VALID,0,
2014-04-07, 00:44:05,VALID,1011.96,VALID,0,INVALID,111.977,VALID,0,VALID,23.694,VALID,90,VALID,0,
2014-04-07, 00:45:05,VALID,1011.94,VALID,0,INVALID,111.969,VALID,0,VALID,23.6745,VALID,90,VALID,0,
2014-04-07, 00:46:05,VALID,1011.95,VALID,0,INVALID,111.999,VALID,0,VALID,23.694,VALID,90,VALID,0,
2014-04-07, 00:47:05,VALID,1011.96,VALID,0,INVALID,112.038,VALID,0,VALID,23.694,VALID,90,VALID,0,
2014-04-07, 00:48:05,VALID,1011.93,VALID,0,INVALID,112.068,VALID,0,VALID,23.6958,VALID,90,VALID,0,
2014-04-07, 00:49:05,VALID,1011.95,VALID,0,INVALID,112.045,VALID,0,VALID,23.6727,VALID,90,VALID,0,
2014-04-07, 00:50:05,VALID,1011.93,VALID,0,INVALID,112.06,VALID,0,VALID,23.694,VALID,90,VALID,0,
2014-04-07, 00:51:05,VALID,1011.93,VALID,0,INVALID,112.038,VALID,0,VALID,23.6922,VALID,90,VALID,0,
2014-04-07, 00:52:05,VALID,1011.93,VALID,0,INVALID,112.038,VALID,0,VALID,23.6922,VALID,90,VALID,0,
2014-04-07, 00:53:05,VALID,1011.97,VALID,0,INVALID,112.038,VALID,0,VALID,23.694,VALID,90,VALID,0,
2014-04-07, 00:54:05,VALID,1011.93,VALID,0,INVALID,112.045,VALID,0,VALID,23.694,VALID,90,VALID,0,
2014-04-07, 00:55:05,VALID,1011.93,VALID,0,INVALID,112.038,VALID,0,VALID,23.694,VALID,90,VALID,0,
2014-04-07, 00:56:05,VALID,1011.95,VALID,0,INVALID,112.03,VALID,0,VALID,23.694,VALID,90,VALID,0,
2014-04-07, 00:57:05,VALID,1011.96,VALID,0,INVALID,112.06,VALID,0,VALID,23.694,VALID,90,VALID,0,
2014-04-07, 00:58:05,VALID,1011.97,VALID,0,INVALID,112.083,VALID,0,VALID,23.694,VALID,90,VALID,0,
2014-04-07, 00:59:05,VALID,1011.94,VALID,0,INVALID,112.022,VALID,0,VALID,23.6745,VALID,90,VALID,0,
2014-04-07, 01:00:05,VALID,1011.93,VALID,0,INVALID,112.015,VALID,0,VALID,23.694,VALID,90,VALID,0,
2014-04-07, 01:01:05,VALID,1011.92,VALID,0,INVALID,112.022,VALID,0,VALID,23.694,VALID,90,VALID,0,
2014-04-07, 01:02:05,VALID,1011.88,VALID,0,INVALID,112.03,VALID,0,VALID,23.6745,VALID,90,VALID,0,
2014-04-07, 01:03:05,VALID,1011.84,VALID,0,INVALID,112.068,VALID,0,VALID,23.6745,VALID,90,VALID,0,
2014-04-07, 01:04:05,VALID,1011.83,VALID,0,INVALID,112.03,VALID,0,VALID,23.6745,VALID,90,VALID,0,
2014-04-07, 01:05:05,VALID,1011.81,VALID,0,INVALID,112.015,VALID,0,VALID,23.6532,VALID,90,VALID,0,
2014-04-07, 01:06:05,VALID,1011.77,VALID,0,INVALID,112.045,VALID,0,VALID,23.6745,VALID,90,VALID,0,
2014-04-07, 01:07:05,VALID,1011.77,VALID,0,INVALID,112.038,VALID,0,VALID,23.6745,VALID,90,VALID,0,
2014-04-07, 01:08:05,VALID,1011.75,VALID,0,INVALID,111.999,VALID,0,VALID,23.655,VALID,91,VALID,0,
2014-04-07, 01:09:05,VALID,1011.75,VALID,0,INVALID,112.007,VALID,0,VALID,23.655,VALID,90,VALID,0,
2014-04-07, 01:10:05,VALID,1011.74,VALID,0,INVALID,111.992,VALID,0,VALID,23.655,VALID,90,VALID,0,
2014-04-07, 01:11:05,VALID,1011.72,VALID,0,INVALID,112.03,VALID,0,VALID,23.6338,VALID,90,VALID,0,
2014-04-07, 01:12:05,VALID,1011.73,VALID,0,INVALID,111.977,VALID,0,VALID,23.6356,VALID,90,VALID,0,
2014-04-07, 01:13:05,VALID,1011.72,VALID,0,INVALID,112.03,VALID,0,VALID,23.6356,VALID,90,VALID,0,
2014-04-07, 01:14:05,VALID,1011.73,VALID,0,INVALID,112.022,VALID,0,VALID,23.6568,VALID,90,VALID,0,
2014-04-07, 01:15:05,VALID,1011.74,VALID,0,INVALID,112.007,VALID,0,VALID,23.655,VALID,90,VALID,0,
2014-04-07, 01:16:05,VALID,1011.73,VALID,0,INVALID,111.999,VALID,0,VALID,23.655,VALID,90,VALID,0,
2014-04-07, 01:17:05,VALID,1011.72,VALID,0,INVALID,111.977,VALID,0,VALID,23.655,VALID,90,VALID,0,
2014-04-07, 01:18:05,VALID,1011.72,VALID,0,INVALID,111.977,VALID,0,VALID,23.6356,VALID,90,VALID,0,
2014-04-07, 01:19:05,VALID,1011.73,VALID,0,INVALID,111.938,VALID,0,VALID,23.6356,VALID,90,VALID,0,
2014-04-07, 01:20:05,VALID,1011.7,VALID,0,INVALID,112.007,VALID,0,VALID,23.655,VALID,90,VALID,0,
2014-04-07, 01:21:05,VALID,1011.69,VALID,0,INVALID,111.977,VALID,0,VALID,23.655,VALID,90,VALID,0,
2014-04-07, 01:22:05,VALID,1011.71,VALID,0,INVALID,111.969,VALID,0,VALID,23.6356,VALID,90,VALID,0,
2014-04-07, 01:23:05,VALID,1011.69,VALID,0,INVALID,111.961,VALID,0,VALID,23.6356,VALID,90,VALID,0,
2014-04-07, 01:24:05,VALID,1011.68,VALID,0,INVALID,111.923,VALID,0,VALID,23.6356,VALID,90,VALID,0,
2014-04-07, 01:25:05,VALID,1011.69,VALID,0,INVALID,111.938,VALID,0,VALID,23.655,VALID,90,VALID,0,
2014-04-07, 01:26:05,VALID,1011.67,VALID,0,INVALID,111.916,VALID,0,VALID,23.655,VALID,90,VALID,0,
2014-04-07, 01:27:05,VALID,1011.66,VALID,0,INVALID,111.893,VALID,0,VALID,23.655,VALID,90,VALID,0,
2014-04-07, 01:28:05,VALID,1011.65,VALID,0,INVALID,111.885,VALID,0,VALID,23.6356,VALID,90,VALID,0,
2014-04-07, 01:29:05,VALID,1011.65,VALID,0,INVALID,111.862,VALID,0,VALID,23.6143,VALID,90,VALID,0,
2014-04-07, 01:30:05,VALID,1011.61,VALID,0,INVALID,111.908,VALID,0,VALID,23.6356,VALID,90,VALID,0,
2014-04-07, 01:31:05,VALID,1011.62,VALID,0,INVALID,111.877,VALID,0,VALID,23.5948,VALID,90,VALID,0,
2014-04-07, 01:32:05,VALID,1011.6,VALID,0,INVALID,111.862,VALID,0,VALID,23.6161,VALID,90,VALID,0,
2014-04-07, 01:33:05,VALID,1011.6,VALID,0,INVALID,111.855,VALID,0,VALID,23.6161,VALID,90,VALID,0,
2014-04-07, 01:34:05,VALID,1011.59,VALID,0,INVALID,111.832,VALID,0,VALID,23.6161,VALID,90,VALID,0,
2014-04-07, 01:35:05,VALID,1011.6,VALID,0,INVALID,111.862,VALID,0,VALID,23.6161,VALID,90,VALID,0,
2014-04-07, 01:36:05,VALID,1011.58,VALID,0,INVALID,111.862,VALID,0,VALID,23.5948,VALID,90,VALID,0,
2014-04-07, 01:37:05,VALID,1011.56,VALID,0,INVALID,111.847,VALID,0,VALID,23.6161,VALID,90,VALID,0,
2014-04-07, 01:38:05,VALID,1011.55,VALID,0,INVALID,111.832,VALID,0,VALID,23.6161,VALID,90,VALID,0,
2014-04-07, 01:39:05,VALID,1011.54,VALID,0,INVALID,111.847,VALID,0,VALID,23.6161,VALID,90,VALID,0,
2014-04-07, 01:40:05,VALID,1011.52,VALID,0,INVALID,111.832,VALID,0,VALID,23.6161,VALID,90,VALID,0,
2014-04-07, 01:41:05,VALID,1011.49,VALID,0,INVALID,111.778,VALID,0,VALID,23.6161,VALID,90,VALID,0,
2014-04-07, 01:42:05,VALID,1011.51,VALID,0,INVALID,111.801,VALID,0,VALID,23.6161,VALID,90,VALID,0,
2014-04-07, 01:43:05,VALID,1011.51,VALID,0,INVALID,111.839,VALID,0,VALID,23.5753,VALID,91,VALID,0,
2014-04-07, 01:44:04,VALID,1011.5,VALID,0,INVALID,111.855,VALID,0,VALID,23.5753,VALID,90,VALID,0,
2014-04-07, 01:45:04,VALID,1011.51,VALID,0,INVALID,111.809,VALID,0,VALID,23.5966,VALID,90,VALID,0,
2014-04-07, 01:46:04,VALID,1011.52,VALID,0,INVALID,111.824,VALID,0,VALID,23.5966,VALID,90,VALID,0,
2014-04-07, 01:47:04,VALID,1011.53,VALID,0,INVALID,111.824,VALID,0,VALID,23.5771,VALID,90,VALID,0,
2014-04-07, 01:48:04,VALID,1011.53,VALID,0,INVALID,111.801,VALID,0,VALID,23.5966,VALID,90,VALID,0,
2014-04-07, 01:49:04,VALID,1011.52,VALID,0,INVALID,111.809,VALID,0,VALID,23.5771,VALID,90,VALID,0,
2014-04-07, 01:50:04,VALID,1011.52,VALID,0,INVALID,111.794,VALID,0,VALID,23.5966,VALID,90,VALID,0,
2014-04-07, 01:51:04,VALID,1011.54,VALID,0,INVALID,111.786,VALID,0,VALID,23.5753,VALID,90,VALID,0,
2014-04-07, 01:52:04,VALID,1011.48,VALID,0,INVALID,111.801,VALID,0,VALID,23.5558,VALID,90,VALID,0,
2014-04-07, 01:53:04,VALID,1011.52,VALID,0,INVALID,111.763,VALID,0,VALID,23.5966,VALID,90,VALID,0,
2014-04-07, 01:54:04,VALID,1011.48,VALID,0,INVALID,111.832,VALID,0,VALID,23.5771,VALID,90,VALID,0,
2014-04-07, 01:55:04,VALID,1011.49,VALID,0,INVALID,111.832,VALID,0,VALID,23.5558,VALID,90,VALID,0,
2014-04-07, 01:56:04,VALID,1011.46,VALID,0,INVALID,111.824,VALID,0,VALID,23.5771,VALID,90,VALID,0,
2014-04-07, 01:57:04,VALID,1011.48,VALID,0,INVALID,111.824,VALID,0.112112,VALID,23.5576,VALID,90,VALID,0,
2014-04-07, 01:58:04,VALID,1011.49,VALID,0,INVALID,111.824,VALID,0,VALID,23.5363,VALID,66,VALID,0,
2014-04-07, 01:59:04,VALID,1011.48,VALID,0,INVALID,111.816,VALID,0,VALID,23.5576,VALID,66,VALID,0,
2014-04-07, 02:00:04,VALID,1011.47,VALID,0,INVALID,111.885,VALID,0,VALID,23.5381,VALID,68,VALID,0,
2014-04-07, 02:01:04,VALID,1011.45,VALID,0,INVALID,111.847,VALID,0,VALID,23.5381,VALID,76,VALID,0,
2014-04-07, 02:02:04,VALID,1011.44,VALID,0,INVALID,111.847,VALID,0,VALID,23.5186,VALID,79,VALID,0,
2014-04-07, 02:03:04,VALID,1011.43,VALID,0,INVALID,111.877,VALID,0,VALID,23.5381,VALID,79,VALID,0,
2014-04-07, 02:04:04,VALID,1011.44,VALID,0,INVALID,111.839,VALID,0,VALID,23.5186,VALID,80,VALID,0,
2014-04-07, 02:05:04,VALID,1011.4,VALID,0,INVALID,111.855,VALID,0,VALID,23.5186,VALID,80,VALID,0,
2014-04-07, 02:06:04,VALID,1011.42,VALID,0,INVALID,111.832,VALID,0,VALID,23.5381,VALID,80,VALID,0,
2014-04-07, 02:07:04,VALID,1011.38,VALID,0,INVALID,111.832,VALID,0,VALID,23.5186,VALID,80,VALID,0,
2014-04-07, 02:08:04,VALID,1011.38,VALID,0,INVALID,111.893,VALID,0,VALID,23.5186,VALID,80,VALID,0,
2014-04-07, 02:09:04,VALID,1011.39,VALID,0,INVALID,111.908,VALID,0,VALID,23.5186,VALID,80,VALID,0,
2014-04-07, 02:10:04,VALID,1011.4,VALID,0,INVALID,111.809,VALID,0,VALID,23.5186,VALID,80,VALID,0,
2014-04-07, 02:11:04,VALID,1011.35,VALID,0,INVALID,111.847,VALID,0,VALID,23.5186,VALID,80,VALID,0,
2014-04-07, 02:12:04,VALID,1011.36,VALID,0,INVALID,111.862,VALID,0.112112,VALID,23.5186,VALID,80,VALID,0,
2014-04-07, 02:13:04,VALID,1011.36,VALID,0,INVALID,111.87,VALID,0.112112,VALID,23.4974,VALID,80,VALID,0,
2014-04-07, 02:14:04,VALID,1011.37,VALID,0,INVALID,111.862,VALID,0,VALID,23.4974,VALID,80,VALID,0,
2014-04-07, 02:15:04,VALID,1011.36,VALID,0,INVALID,111.824,VALID,0,VALID,23.5204,VALID,79,VALID,0,
2014-04-07, 02:16:04,VALID,1011.34,VALID,0,INVALID,111.855,VALID,0,VALID,23.4992,VALID,69,VALID,0,
2014-04-07, 02:17:04,VALID,1011.32,VALID,0,INVALID,111.832,VALID,0,VALID,23.4992,VALID,69,VALID,0,
2014-04-07, 02:18:04,VALID,1011.32,VALID,0,INVALID,111.832,VALID,0,VALID,23.4797,VALID,69,VALID,0,
2014-04-07, 02:19:04,VALID,1011.34,VALID,0,INVALID,111.877,VALID,0,VALID,23.4779,VALID,77,VALID,0,
2014-04-07, 02:20:04,VALID,1011.32,VALID,0,INVALID,111.832,VALID,0,VALID,23.4992,VALID,66,VALID,0,
2014-04-07, 02:21:04,VALID,1011.29,VALID,0,INVALID,111.816,VALID,0,VALID,23.4584,VALID,67,VALID,0,
2014-04-07, 02:22:04,VALID,1011.31,VALID,0,INVALID,111.809,VALID,0,VALID,23.4797,VALID,72,VALID,0,
2014-04-07, 02:23:04,VALID,1011.29,VALID,0,INVALID,111.771,VALID,0,VALID,23.4992,VALID,78,VALID,0,
2014-04-07, 02:24:04,VALID,1011.29,VALID,0,INVALID,111.771,VALID,0,VALID,23.4992,VALID,90,VALID,0,
2014-04-07, 02:25:04,VALID,1011.28,VALID,0,INVALID,111.755,VALID,0,VALID,23.4797,VALID,90,VALID,0,
2014-04-07, 02:26:04,VALID,1011.26,VALID,0,INVALID,111.786,VALID,0,VALID,23.4992,VALID,90,VALID,0,
2014-04-07, 02:27:04,VALID,1011.25,VALID,0,INVALID,111.801,VALID,0,VALID,23.5186,VALID,89,VALID,0,
2014-04-07, 02:28:04,VALID,1011.21,VALID,0,INVALID,111.755,VALID,0.112112,VALID,23.5186,VALID,86,VALID,0,
2014-04-07, 02:29:04,VALID,1011.2,VALID,0,INVALID,111.816,VALID,0,VALID,23.4992,VALID,82,VALID,0.266406,
2014-04-07, 02:30:04,VALID,1011.19,VALID,0,INVALID,111.832,VALID,0,VALID,23.4779,VALID,66,VALID,0,
2014-04-07, 02:31:04,VALID,1011.21,VALID,0,INVALID,111.816,VALID,0,VALID,23.4584,VALID,82,VALID,0,
2014-04-07, 02:32:04,VALID,1011.21,VALID,0,INVALID,111.771,VALID,0,VALID,23.4797,VALID,82,VALID,0,
2014-04-07, 02:33:04,VALID,1011.22,VALID,0,INVALID,111.832,VALID,0,VALID,23.4389,VALID,83,VALID,0,
2014-04-07, 02:34:04,VALID,1011.2,VALID,0,INVALID,111.763,VALID,0,VALID,23.4797,VALID,83,VALID,0,
2014-04-07, 02:35:04,VALID,1011.19,VALID,0,INVALID,111.778,VALID,0,VALID,23.4602,VALID,79,VALID,0,
2014-04-07, 02:36:04,VALID,1011.2,VALID,0,INVALID,111.748,VALID,0,VALID,23.4602,VALID,91,VALID,0,
2014-04-07, 02:37:04,VALID,1011.21,VALID,0,INVALID,111.74,VALID,0,VALID,23.4389,VALID,73,VALID,0,
2014-04-07, 02:38:04,VALID,1011.22,VALID,0,INVALID,111.755,VALID,0,VALID,23.4194,VALID,73,VALID,0,
2014-04-07, 02:39:04,VALID,1011.19,VALID,0,INVALID,111.725,VALID,0,VALID,23.4194,VALID,91,VALID,0,
2014-04-07, 02:40:04,VALID,1011.19,VALID,0,INVALID,111.733,VALID,0,VALID,23.4407,VALID,91,VALID,0,
2014-04-07, 02:41:04,VALID,1011.15,VALID,0,INVALID,111.702,VALID,0,VALID,23.4407,VALID,81,VALID,0,
2014-04-07, 02:42:04,VALID,1011.18,VALID,0,INVALID,111.71,VALID,0,VALID,23.4194,VALID,75,VALID,0,
2014-04-07, 02:43:04,VALID,1011.16,VALID,0,INVALID,111.679,VALID,0,VALID,23.4407,VALID,75,VALID,0,
2014-04-07, 02:44:04,VALID,1011.15,VALID,0,INVALID,111.679,VALID,0,VALID,23.4407,VALID,75,VALID,0,
2014-04-07, 02:45:04,VALID,1011.14,VALID,0,INVALID,111.649,VALID,0,VALID,23.4389,VALID,111,VALID,0,
2014-04-07, 02:46:04,VALID,1011.12,VALID,0,INVALID,111.595,VALID,0,VALID,23.4602,VALID,112,VALID,0,
2014-04-07, 02:47:04,VALID,1011.15,VALID,0,INVALID,111.603,VALID,0,VALID,23.4407,VALID,93,VALID,0,
2014-04-07, 02:48:04,VALID,1011.16,VALID,0,INVALID,111.656,VALID,0,VALID,23.3805,VALID,66,VALID,0,
2014-04-07, 02:49:04,VALID,1011.14,VALID,0,INVALID,111.595,VALID,0,VALID,23.4194,VALID,124,VALID,0,
2014-04-07, 02:50:04,VALID,1011.15,VALID,0,INVALID,111.557,VALID,0,VALID,23.4212,VALID,106,VALID,0,
2014-04-07, 02:51:04,VALID,1011.13,VALID,0,INVALID,111.588,VALID,0,VALID,23.4,VALID,82,VALID,0,
2014-04-07, 02:52:04,VALID,1011.14,VALID,0,INVALID,111.58,VALID,0.112112,VALID,23.3805,VALID,75,VALID,0,
2014-04-07, 02:53:04,VALID,1011.11,VALID,0,INVALID,111.511,VALID,0.112112,VALID,23.4,VALID,76,VALID,0,
2014-04-07, 02:54:04,VALID,1011.12,VALID,0,INVALID,111.504,VALID,0,VALID,23.4,VALID,76,VALID,0,
2014-04-07, 02:55:04,VALID,1011.1,VALID,0,INVALID,111.496,VALID,0,VALID,23.4212,VALID,100,VALID,0,
2014-04-07, 02:56:04,VALID,1011.1,VALID,0,INVALID,111.458,VALID,0,VALID,23.3805,VALID,61,VALID,0,
2014-04-07, 02:57:04,VALID,1011.11,VALID,0,INVALID,111.489,VALID,0,VALID,23.4,VALID,102,VALID,0,
2014-04-07, 02:58:04,VALID,1011.12,VALID,0,INVALID,111.458,VALID,0,VALID,23.3823,VALID,54,VALID,0,
2014-04-07, 02:59:04,VALID,1011.15,VALID,0,INVALID,111.428,VALID,0,VALID,23.3805,VALID,71,VALID,0,
2014-04-07, 03:00:04,VALID,1011.14,VALID,0,INVALID,111.458,VALID,0,VALID,23.3805,VALID,71,VALID,0,
2014-04-07, 03:01:04,VALID,1011.16,VALID,0,INVALID,111.412,VALID,0,VALID,23.3805,VALID,71,VALID,0,
2014-04-07, 03:02:04,VALID,1011.15,VALID,0,INVALID,111.351,VALID,0,VALID,23.4017,VALID,68,VALID,0,
2014-04-07, 03:03:04,VALID,1011.16,VALID,0,INVALID,111.428,VALID,0,VALID,23.3805,VALID,92,VALID,0,
2014-04-07, 03:04:04,VALID,1011.16,VALID,0,INVALID,111.397,VALID,0,VALID,23.4017,VALID,95,VALID,0,
2014-04-07, 03:05:04,VALID,1011.17,VALID,0,INVALID,111.359,VALID,0,VALID,23.4017,VALID,103,VALID,0.456641,
2014-04-07, 03:06:04,VALID,1011.16,VALID,0,INVALID,111.412,VALID,0,VALID,23.3823,VALID,83,VALID,0,
2014-04-07, 03:07:04,VALID,1011.14,VALID,0,INVALID,111.42,VALID,0,VALID,23.4017,VALID,76,VALID,0,
2014-04-07, 03:08:04,VALID,1011.15,VALID,0,INVALID,111.382,VALID,0,VALID,23.4017,VALID,90,VALID,0,
2014-04-07, 03:09:04,VALID,1011.17,VALID,0,INVALID,111.412,VALID,0,VALID,23.4017,VALID,98,VALID,0,
2014-04-07, 03:10:04,VALID,1011.17,VALID,0,INVALID,111.389,VALID,0,VALID,23.4017,VALID,90,VALID,0,
2014-04-07, 03:11:04,VALID,1011.11,VALID,0,INVALID,111.359,VALID,0,VALID,23.4212,VALID,90,VALID,0,
2014-04-07, 03:12:04,VALID,1011.14,VALID,0,INVALID,111.367,VALID,0,VALID,23.4,VALID,90,VALID,0,
2014-04-07, 03:13:04,VALID,1011.14,VALID,0,INVALID,111.367,VALID,0,VALID,23.4407,VALID,89,VALID,0,
2014-04-07, 03:14:04,VALID,1011.16,VALID,0,INVALID,111.367,VALID,0,VALID,23.4212,VALID,71,VALID,0,
2014-04-07, 03:15:04,VALID,1011.14,VALID,0,INVALID,111.367,VALID,0,VALID,23.4,VALID,92,VALID,0,
2014-04-07, 03:16:04,VALID,1011.14,VALID,0,INVALID,111.374,VALID,0,VALID,23.4407,VALID,105,VALID,0,
2014-04-07, 03:17:04,VALID,1011.17,VALID,0,INVALID,111.359,VALID,0,VALID,23.4194,VALID,107,VALID,0,
2014-04-07, 03:18:04,VALID,1011.19,VALID,0,INVALID,111.321,VALID,0,VALID,23.4407,VALID,108,VALID,0,
2014-04-07, 03:19:04,VALID,1011.16,VALID,0,INVALID,111.428,VALID,0,VALID,23.4407,VALID,124,VALID,0,
2014-04-07, 03:20:04,VALID,1011.16,VALID,0,INVALID,111.412,VALID,0,VALID,23.4212,VALID,89,VALID,0,
2014-04-07, 03:21:04,VALID,1011.16,VALID,0,INVALID,111.42,VALID,0,VALID,23.4212,VALID,90,VALID,0,
2014-04-07, 03:22:04,VALID,1011.18,VALID,0,INVALID,111.458,VALID,0,VALID,23.4017,VALID,93,VALID,0,
2014-04-07, 03:23:04,VALID,1011.19,VALID,0,INVALID,111.481,VALID,0,VALID,23.4212,VALID,92,VALID,0,
2014-04-07, 03:24:04,VALID,1011.17,VALID,0,INVALID,111.435,VALID,0,VALID,23.4,VALID,92,VALID,0,
2014-04-07, 03:25:04,VALID,1011.18,VALID,0,INVALID,111.412,VALID,0,VALID,23.4212,VALID,92,VALID,0,
2014-04-07, 03:26:04,VALID,1011.17,VALID,0,INVALID,111.428,VALID,0,VALID,23.4194,VALID,93,VALID,0,
2014-04-07, 03:27:04,VALID,1011.16,VALID,0,INVALID,111.389,VALID,0,VALID,23.4389,VALID,92,VALID,0,
2014-04-07, 03:28:04,VALID,1011.18,VALID,0,INVALID,111.389,VALID,0,VALID,23.4602,VALID,93,VALID,0,
2014-04-07, 03:29:04,VALID,1011.18,VALID,0,INVALID,111.428,VALID,0,VALID,23.4407,VALID,82,VALID,0,
2014-04-07, 03:30:04,VALID,1011.18,VALID,0,INVALID,111.473,VALID,0,VALID,23.4194,VALID,69,VALID,0,
2014-04-07, 03:31:04,VALID,1011.18,VALID,0,INVALID,111.519,VALID,0,VALID,23.4407,VALID,69,VALID,0,
2014-04-07, 03:32:04,VALID,1011.17,VALID,0,INVALID,111.428,VALID,0,VALID,23.4602,VALID,69,VALID,0,
2014-04-07, 03:33:04,VALID,1011.17,VALID,0,INVALID,111.504,VALID,0,VALID,23.4602,VALID,69,VALID,0,
2014-04-07, 03:34:04,VALID,1011.19,VALID,0,INVALID,111.527,VALID,0,VALID,23.4407,VALID,69,VALID,0,
2014-04-07, 03:35:04,VALID,1011.2,VALID,0,INVALID,111.534,VALID,0,VALID,23.4407,VALID,69,VALID,0,
2014-04-07, 03:36:04,VALID,1011.17,VALID,0,INVALID,111.595,VALID,0,VALID,23.4212,VALID,75,VALID,0,
2014-04-07, 03:37:04,VALID,1011.16,VALID,0,INVALID,111.641,VALID,0,VALID,23.4,VALID,87,VALID,0.0121094,
2014-04-07, 03:38:04,VALID,1011.13,VALID,0,INVALID,111.687,VALID,0,VALID,23.4,VALID,93,VALID,0,
2014-04-07, 03:39:04,VALID,1011.14,VALID,0,INVALID,111.694,VALID,0,VALID,23.4407,VALID,97,VALID,0,
2014-04-07, 03:40:04,VALID,1011.14,VALID,0,INVALID,111.717,VALID,0,VALID,23.4407,VALID,97,VALID,0,
2014-04-07, 03:41:04,VALID,1011.12,VALID,0,INVALID,111.755,VALID,0,VALID,23.4407,VALID,97,VALID,0,
2014-04-07, 03:42:04,VALID,1011.1,VALID,0,INVALID,111.801,VALID,0.112112,VALID,23.4407,VALID,97,VALID,0,
2014-04-07, 03:43:04,VALID,1011.12,VALID,0,INVALID,111.786,VALID,0.112112,VALID,23.4194,VALID,95,VALID,0,
2014-04-07, 03:44:04,VALID,1011.12,VALID,0,INVALID,111.832,VALID,0,VALID,23.4,VALID,97,VALID,0,
2014-04-07, 03:45:04,VALID,1011.1,VALID,0,INVALID,111.87,VALID,0,VALID,23.4017,VALID,73,VALID,0,
2014-04-07, 03:46:04,VALID,1011.09,VALID,0,INVALID,111.9,VALID,0,VALID,23.4017,VALID,71,VALID,0,
2014-04-07, 03:47:04,VALID,1011.09,VALID,0,INVALID,111.916,VALID,0,VALID,23.4017,VALID,84,VALID,0,
2014-04-07, 03:48:04,VALID,1011.09,VALID,0,INVALID,111.977,VALID,0,VALID,23.3823,VALID,66,VALID,0,
2014-04-07, 03:49:04,VALID,1011.08,VALID,0,INVALID,111.977,VALID,0.112112,VALID,23.3823,VALID,67,VALID,0,
2014-04-07, 03:50:04,VALID,1011.1,VALID,0,INVALID,111.977,VALID,0,VALID,23.3823,VALID,66,VALID,0,
2014-04-07, 03:51:04,VALID,1011.14,VALID,0,INVALID,112.03,VALID,0,VALID,23.3823,VALID,67,VALID,0,
2014-04-07, 03:52:04,VALID,1011.14,VALID,0,INVALID,111.984,VALID,0,VALID,23.3415,VALID,67,VALID,0,
2014-04-07, 03:53:04,VALID,1011.14,VALID,0,INVALID,112.045,VALID,0,VALID,23.361,VALID,70,VALID,0,
2014-04-07, 03:54:04,VALID,1011.15,VALID,0,INVALID,112.03,VALID,0,VALID,23.361,VALID,70,VALID,0,
2014-04-07, 03:55:04,VALID,1011.15,VALID,0,INVALID,111.992,VALID,0,VALID,23.3628,VALID,70,VALID,0,
2014-04-07, 03:56:04,VALID,1011.14,VALID,0,INVALID,112.053,VALID,0,VALID,23.3823,VALID,70,VALID,0,
2014-04-07, 03:57:04,VALID,1011.13,VALID,0,INVALID,112.007,VALID,0,VALID,23.3628,VALID,70,VALID,0,